• MPC Preparation (Info)

  • MPEC 2019-G39 : 2019 GN

    The following Minor Planet Electronic Circular may be linked-to from your own Web pages, but must not otherwise be redistributed electronically.

    A form allowing access to any MPEC is at the bottom of this page.


    Read MPEC 2019-G38 Read MPEC 2019-G40


    M.P.E.C. 2019-G39                                Issued 2019 Apr. 5, 02:59 UT
    
         The Minor Planet Electronic Circulars contain information on unusual
             minor planets and routine data on comets.  They are published
        on behalf of Division F of the International Astronomical Union by the
              Minor Planet Center, Smithsonian Astrophysical Observatory,
                              Cambridge, MA 02138, U.S.A.
    
                 Prepared using the Tamkin Foundation Computer Network
    
                                  MPC@CFA.HARVARD.EDU
                URL https://www.minorplanetcenter.net/    ISSN 1523-6714
    
                                        2019 GN
    
    Observations:
         K19G00N* C2019 04 02.42354 13 03 57.928-03 54 43.97         22.1 wUEG039F51
         K19G00N  C2019 04 02.43637 13 03 58.056-03 54 54.64         22.5 wUEG039F51
         K19G00N  C2019 04 02.44920 13 03 58.179-03 55 05.06         22.4 wUEG039F51
         K19G00N  C2019 04 02.46207 13 03 58.320-03 55 15.10         22.1 wUEG039F51
         K19G00N ^C2019 04 03.54736713 05 02.867-04 11 29.43         21.26GVEG039568
         K19G00N ^C2019 04 03.54831513 05 02.893-04 11 30.37         21.80GVEG039568
         K19G00N ^C2019 04 03.54926913 05 02.920-04 11 31.31         21.19GVEG039568
         K19G00N ^C2019 04 04.47146013 06 18.026-04 28 42.28               VEG039568
         K19G00N ^C2019 04 04.47349613 06 18.083-04 28 44.76         21.37GVEG039568
         K19G00N ^C2019 04 04.47450413 06 18.111-04 28 45.97         21.32GVEG039568
    
    Observer details:
    568 Mauna Kea.  Observers R. Wainscoat, C. Wipper, A. Petric.  Measurers
        R. Weryk, R. Wainscoat.  3.6-m Canada-France-Hawaii Telescope + CCD.
    F51 Pan-STARRS 1, Haleakala.  Observers J. Bulger, T. Lowe, A. Schultz,
        M. Willman.  Measurers K. Chambers, S. Chastel, T. de Boer, L. Denneau,
        J. Fairlamb, H. Flewelling, M. Huber, C.-C. Lin, E. Magnier,
        Y. Ramanjooloo, R. Wainscoat, R. Weryk.  1.8-m Ritchey-Chretien + CCD.
    
    Orbital elements:
    2019 GN                                                  Earth MOID = 0.0017 AU
    Epoch 2019 Apr. 27.0 TT = JDT 2458600.5                 MPC
    M 337.02968              (2000.0)            P               Q
    n   0.61295694     Peri.  255.05389     +0.07451045     +0.99718495
    a   1.3725118      Node    19.22514     -0.90486274     +0.07114265
    e   0.4151353      Incl.    1.45972     -0.41913198     +0.02368315
    P   1.61           H   27.2           G   0.15           U   8
    Residuals in seconds of arc
    190402 F51  0.1+  0.2+    190403 568  0.0   0.1+    190404 568  0.0   0.0
    190402 F51  0.0   0.1-    190403 568  0.0   0.1+    190404 568  0.0   0.0
    190402 F51  0.1-  0.2-    190403 568  0.1+  0.0
    190402 F51  0.0   0.1+    190404 568  0.0   0.0
    
    Ephemeris:
    2019 GN                  a,e,i = 1.37, 0.42, 1                   q = 0.8027
    Date    TT    R. A. (2000) Decl.     Delta      r     Elong.  Phase     V
    2019 03 06    12 50 24.4 -01 59 37   0.2901  1.2561   152.3    21.5    26.1
    ...
    2019 03 21    12 57 18.9 -02 38 04   0.1649  1.1562   165.3    12.7    24.4
    ...
    2019 03 29    13 00 49.8 -03 12 46   0.1052  1.1024   171.9     7.3    23.1
    ...
    2019 04 04    13 05 41.2 -04 18 31   0.06265 1.0625   176.0     3.7    21.7
    2019 04 05    13 07 07.7 -04 39 13   0.05571 1.0559   176.5     3.3    21.4
    2019 04 06    13 08 58.2 -05 05 49   0.04881 1.0493   177.0     2.9    21.0
    ...
    2019 04 12    14 26 11.0 -22 12 03   0.0087071.0103   158.9    20.9    18.0
    ...
    2019 04 20    00 40 16.6 -01 55 41   0.04739 0.9605    21.6   157.3    30.6
    ...
    2019 05 05    00 55 47.8 +01 28 55   0.1552  0.8788    30.8   144.0    30.3
    
    A. U. Tomatic                (C) Copyright 2019 MPC           M.P.E.C. 2019-G39
    

    Read MPEC 2019-G38 Read MPEC 2019-G40


    MPEC number:

    Enter an MPEC number in one of the following forms:

    • 1997-B01 (the full form)
    • J97B01 (the packed version of the full form)
    • B01 (the abbreviated form)